This is the latest recevied weather packets stored in our database for station/object KI6AOK. If no packets are shown the sender has not sent any weather packets the latest 10 day(s).
| Time | Temp. | Humidity | Pressure | Rain* | Wind** | Luminosity | Snow |
|---|---|---|---|---|---|---|---|
| 1777934988 | 20° C | 51% | 1014.6 hPa | 0 mm | - | 561 W/m² | - |
| 1777934684 | 20° C | 51% | 1014.6 hPa | 0 mm | - | 536 W/m² | - |
| 1777934381 | 20° C | 49% | 1014.7 hPa | 0 mm | - | 512 W/m² | - |
| 1777934077 | 20.56° C | 49% | 1014.8 hPa | 0 mm | - | 526 W/m² | - |
| 1777933773 | 20° C | 48% | 1014.8 hPa | 0 mm | - | 573 W/m² | - |
| 1777933471 | 20° C | 49% | 1014.8 hPa | 0 mm | - | 461 W/m² | - |
| 1777933169 | 20.56° C | 45% | 1015.1 hPa | 0 mm | - | 574 W/m² | - |
| 1777932865 | 20.56° C | 47% | 1015.1 hPa | 0 mm | - | 619 W/m² | - |
| 1777932562 | 20.56° C | 48% | 1015.2 hPa | 0 mm | - | 647 W/m² | - |
| 1777932259 | 21.11° C | 48% | 1015.2 hPa | 0 mm | - | 688 W/m² | - |
| 1777931956 | 20.56° C | 48% | 1015.3 hPa | 0 mm | - | 728 W/m² | - |
| 1777931653 | 20.56° C | 46% | 1015.1 hPa | 0 mm | - | 639 W/m² | - |
| 1777931349 | 20.56° C | 48% | 1015.3 hPa | 0 mm | - | 689 W/m² | - |
| 1777931046 | 20.56° C | 46% | 1015.5 hPa | 0 mm | - | 683 W/m² | - |
| 1777930742 | 21.11° C | 43% | 1015.4 hPa | 0 mm | - | 722 W/m² | - |
| 1777930438 | 20.56° C | 46% | 1015.2 hPa | 0 mm | - | 761 W/m² | - |
| 1777930136 | 20° C | 44% | 1015.6 hPa | 0 mm | - | 761 W/m² | - |
| 1777929831 | 20.56° C | 44% | 1015.4 hPa | 0 mm | - | 644 W/m² | - |
| 1777929530 | 20.56° C | 44% | 1015.6 hPa | 0 mm | - | 580 W/m² | - |
| 1777929225 | 20.56° C | 44% | 1015.7 hPa | 0 mm | - | 855 W/m² | - |
| 1777928923 | 20° C | 48% | 1015.6 hPa | 0 mm | - | 825 W/m² | - |
| 1777928620 | 20.56° C | 45% | 1015.5 hPa | 0 mm | - | 818 W/m² | - |
| 1777928317 | 20.56° C | 44% | 1015.8 hPa | 0 mm | - | 786 W/m² | - |
| 1777928015 | 21.11° C | 44% | 1015.6 hPa | 0 mm | - | 847 W/m² | - |
| 1777927713 | 20.56° C | 47% | 1015.6 hPa | 0 mm | - | 867 W/m² | - |
* Rain latest hour (hover to see other rain measurements)
** Current wind speed in m/s (hover to see current wind gust speed)